STARLINK-1988 (47584 NORAD) Tracking and Keplerian Element Data

This shows tracking and keplerian element data for the satellite.

Feedback or suggestion? Click here.




ElementValue
Catalog47584
NameSTARLINK-1988
Epoch Orbit177
Epoch Day105.91667824
Epoch Year2021
RAAN137.9575
Inclination53.0514
Eccentricity0.0003856
Argument of Perigee0.3407
Mean Anonmoly94.1481
Mean Motion15.6270549
Decay Rate0.00052147
L11 47584U 21009AN 21105.91667824 .00052147 00000-0 57262-3 0 9996
L22 47584 53.0514 137.9575 0003856 0.3407 94.1481 15.62705490 1772

Live tracking and technical data element details for STARLINK-1988 (NORAD 47584). STARLINK-1988 can be tracked NOW for your location showing map with azimuth and elevation plus other details from your city location.

Track the satellite on the map from your city or location and see movement details for azimuth, elevation, latitude, longitude, range, height, and movement on the map or in text.







IsCatalogInMostPopularTable: catalog: 47584, numindb: 18
Update: records affected: 1



GetName: 47584 STARLINK-1988

Hit Count: updated at: Fri, 16 Apr 2021 12:08:34 GMT